This is the latest recevied weather packets stored in our database for station/object OK1VCF-8. If no packets are shown the sender has not sent any weather packets the latest 10 day(s).
| Time | Temp. | Humidity | Pressure | Rain* | Wind** | Luminosity | Snow |
|---|---|---|---|---|---|---|---|
| 1777739557 | 32.22° C | 16% | 1019.6 hPa | - | - | - | - |
| 1777739116 | 32.22° C | 16% | 1019.8 hPa | - | - | - | - |
| 1777738677 | 32.22° C | 16% | 1019.8 hPa | - | - | - | - |
| 1777738238 | 32.78° C | 17% | 1019.9 hPa | - | - | - | - |
| 1777737799 | 32.22° C | 17% | 1020.2 hPa | - | - | - | - |
| 1777736497 | 33.33° C | 17% | 1020.2 hPa | - | - | - | - |
| 1777735192 | 31.11° C | 16% | 1020.6 hPa | - | - | - | - |
| 1777734588 | 32.22° C | 16% | 1020.6 hPa | - | - | - | - |
| 1777734148 | 30° C | 18% | 1020.8 hPa | - | - | - | - |
| 1777733707 | 30° C | 18% | 1020.9 hPa | - | - | - | - |
| 1777733268 | 30° C | 18% | 1021 hPa | - | - | - | - |
| 1777732830 | 27.78° C | 22% | 1021.2 hPa | - | - | - | - |
| 1777732391 | 24.44° C | 24% | 1021.2 hPa | - | - | - | - |
| 1777731951 | 24.44° C | 24% | 1021.3 hPa | - | - | - | - |
| 1777731511 | 24.44° C | 25% | 1021.5 hPa | - | - | - | - |
| 1777731074 | 25° C | 26% | 1021.4 hPa | - | - | - | - |
| 1777730635 | 25.56° C | 24% | 1021.6 hPa | - | - | - | - |
| 1777730193 | 25.56° C | 26% | 1021.7 hPa | - | - | - | - |
| 1777729752 | 25.56° C | 24% | 1021.7 hPa | - | - | - | - |
| 1777729312 | 25.56° C | 26% | 1021.9 hPa | - | - | - | - |
| 1777728870 | 25.56° C | 27% | 1022 hPa | - | - | - | - |
| 1777728428 | 25.56° C | 26% | 1022 hPa | - | - | - | - |
| 1777727824 | 24.44° C | 26% | 1022.1 hPa | - | - | - | - |
| 1777727373 | 23.89° C | 26% | 1022.3 hPa | - | - | - | - |
| 1777726907 | 23.89° C | 24% | 1023.1 hPa | - | - | - | - |
* Rain since midnight (hover to see other rain measurements)
** Current wind speed in m/s (hover to see current wind gust speed)